| time (UTC) | temp F | wind direction | speed knots | gust knots | rain 1hr in | rain 24hr in | rain mn in | humidity % | barometer mb |
| 20260507200058 | 52 | 0 | 0.0 | 0.0 | 0.00 | 0.25 | 0.25 | 94 | 1016.7 |
| 20260507194633 | 52 | 0 | 0.0 | 0.0 | 0.03 | 0.25 | 0.25 | 93 | 1016.7 |
| 20260507193058 | 52 | 0 | 0.0 | 0.0 | 0.15 | 0.25 | 0.25 | 92 | 1016.4 |
| 20260507191557 | 53 | 205 | 0.0 | 0.9 | 0.23 | 0.25 | 0.25 | 91 | 1016.2 |
| 20260507190059 | 53 | 0 | 0.0 | 2.6 | 0.25 | 0.25 | 0.25 | 89 | 1015.9 |
| 20260507184609 | 53 | 0 | 0.9 | 3.5 | 0.22 | 0.22 | 0.22 | 88 | 1015.5 |
| 20260507183104 | 54 | 65 | 0.9 | 8.7 | 0.09 | 0.09 | 0.09 | 84 | 1015.2 |
| 20260507181558 | 56 | 338 | 2.6 | 11.3 | 0.01 | 0.01 | 0.01 | 77 | 1014.6 |
| 20260507180057 | 58 | 310 | 5.2 | 17.4 | 0.00 | 0.00 | 0.00 | 70 | 1014.2 |
| 20260507174558 | 60 | 307 | 13.0 | 20.9 | 0.00 | 0.00 | 0.00 | 64 | 1013.5 |
| 20260507173057 | 63 | 312 | 8.7 | 22.6 | 0.00 | 0.00 | 0.00 | 61 | 1012.5 |
| 20260507171556 | 69 | 260 | 3.5 | 12.2 | 0.00 | 0.00 | 0.00 | 52 | 1011.9 |
| 20260507170056 | 70 | 179 | 2.6 | 7.0 | 0.00 | 0.00 | 0.00 | 47 | 1011.0 |
| 20260507164606 | 71 | 229 | 1.7 | 6.1 | 0.00 | 0.00 | 0.00 | 46 | 1010.8 |
| 20260507163058 | 72 | 190 | 0.9 | 7.0 | 0.00 | 0.00 | 0.00 | 45 | 1010.6 |
| 20260507161558 | 75 | 186 | 0.9 | 7.8 | 0.00 | 0.00 | 0.00 | 42 | 1010.3 |
| 20260507160058 | 73 | 240 | 1.7 | 5.2 | 0.00 | 0.00 | 0.00 | 49 | 1010.3 |
| 20260507154606 | 73 | 70 | 5.2 | 10.4 | 0.00 | 0.00 | 0.00 | 50 | 1010.2 |
| 20260507153057 | 73 | 71 | 2.6 | 11.3 | 0.00 | 0.00 | 0.00 | 51 | 1010.2 |
| 20260507151558 | 72 | 108 | 6.1 | 11.3 | 0.00 | 0.00 | 0.00 | 52 | 1010.2 |
| 20260507150059 | 72 | 106 | 6.1 | 11.3 | 0.00 | 0.00 | 0.00 | 54 | 1010.1 |
| 20260507144559 | 72 | 72 | 6.1 | 11.3 | 0.00 | 0.00 | 0.00 | 52 | 1010.2 |
| 20260507143110 | 72 | 58 | 4.3 | 12.2 | 0.00 | 0.00 | 0.00 | 53 | 1010.2 |
| 20260507141557 | 71 | 70 | 6.1 | 10.4 | 0.00 | 0.00 | 0.00 | 53 | 1010.4 |
| 20260507140055 | 71 | 68 | 6.1 | 11.3 | 0.00 | 0.00 | 0.00 | 54 | 1010.6 |
| 20260507134559 | 71 | 145 | 2.6 | 7.8 | 0.00 | 0.00 | 0.00 | 53 | 1010.6 |
| 20260507133106 | 72 | 95 | 6.1 | 11.3 | 0.00 | 0.00 | 0.00 | 51 | 1010.7 |
| 20260507131612 | 72 | 90 | 3.5 | 11.3 | 0.00 | 0.00 | 0.00 | 50 | 1010.8 |
| 20260507130056 | 72 | 72 | 6.1 | 11.3 | 0.00 | 0.00 | 0.00 | 51 | 1011.1 |
| 20260507124600 | 72 | 24 | 2.6 | 8.7 | 0.00 | 0.00 | 0.00 | 52 | 1011.3 |
| 20260507123056 | 72 | 52 | 1.7 | 7.8 | 0.00 | 0.00 | 0.00 | 47 | 1011.3 |
| 20260507121558 | 72 | 58 | 3.5 | 11.3 | 0.00 | 0.00 | 0.00 | 49 | 1011.5 |
| 20260507120108 | 72 | 0 | 2.6 | 7.0 | 0.00 | 0.00 | 0.00 | 47 | 1011.6 |
| 20260507114607 | 72 | 82 | 0.9 | 6.1 | 0.00 | 0.00 | 0.00 | 51 | 1011.8 |
| 20260507113104 | 71 | 82 | 4.3 | 8.7 | 0.00 | 0.00 | 0.00 | 52 | 1011.8 |
| 20260507111611 | 71 | 214 | 1.7 | 13.0 | 0.00 | 0.00 | 0.00 | 50 | 1012.0 |
| 20260507110059 | 73 | 322 | 0.0 | 4.3 | 0.00 | 0.00 | 0.00 | 42 | 1012.1 |
| 20260507104558 | 72 | 0 | 0.0 | 4.3 | 0.00 | 0.00 | 0.00 | 46 | 1012.2 |
| 20260507103056 | 71 | 166 | 0.0 | 2.6 | 0.00 | 0.00 | 0.00 | 45 | 1012.3 |
| 20260507101558 | 71 | 0 | 0.9 | 3.5 | 0.00 | 0.00 | 0.00 | 46 | 1012.4 |
| 20260507100058 | 71 | 191 | 1.7 | 4.3 | 0.00 | 0.00 | 0.00 | 44 | 1012.5 |
| 20260507094556 | 72 | 243 | 1.7 | 4.3 | 0.00 | 0.00 | 0.00 | 50 | 1012.5 |
| 20260507093106 | 70 | 93 | 0.9 | 3.5 | 0.00 | 0.00 | 0.00 | 55 | 1012.7 |
| 20260507091556 | 70 | 158 | 1.7 | 5.2 | 0.00 | 0.00 | 0.00 | 54 | 1012.8 |
| 20260507090059 | 68 | 0 | 0.9 | 4.3 | 0.00 | 0.00 | 0.00 | 55 | 1012.6 |
| 20260507084557 | 67 | 170 | 2.6 | 5.2 | 0.00 | 0.00 | 0.00 | 60 | 1012.6 |
| 20260507083101 | 64 | 148 | 0.9 | 2.6 | 0.00 | 0.00 | 0.00 | 66 | 1012.8 |
| 20260507081558 | 63 | 0 | 0.0 | 1.7 | 0.00 | 0.00 | 0.00 | 66 | 1012.7 |
| 20260507080114 | 63 | 0 | 0.0 | 3.5 | 0.00 | 0.00 | 0.00 | 69 | 1012.4 |
| 20260507074557 | 62 | 201 | 0.0 | 1.7 | 0.00 | 0.00 | 0.00 | 70 | 1012.5 |
| 20260507073056 | 61 | 208 | 0.0 | 3.5 | 0.00 | 0.00 | 0.00 | 71 | 1012.5 |
| 20260507071610 | 61 | 224 | 1.7 | 3.5 | 0.00 | 0.00 | 0.00 | 71 | 1012.3 |
| 20260507070056 | 60 | 0 | 0.0 | 2.6 | 0.00 | 0.00 | 0.00 | 73 | 1012.1 |
| 20260507064556 | 60 | 188 | 0.0 | 1.7 | 0.00 | 0.00 | 0.00 | 73 | 1012.0 |
| 20260507063057 | 59 | 253 | 0.0 | 2.6 | 0.00 | 0.00 | 0.00 | 75 | 1012.0 |
| 20260507061600 | 59 | 194 | 0.0 | 1.7 | 0.00 | 0.00 | 0.00 | 75 | 1012.0 |
| 20260507060058 | 58 | 0 | 0.0 | 1.7 | 0.00 | 0.00 | 0.00 | 76 | 1011.9 |
| 20260507054602 | 58 | 0 | 0.0 | 0.9 | 0.00 | 0.00 | 0.00 | 78 | 1011.8 |
| 20260507053127 | 58 | 105 | 0.0 | 1.7 | 0.00 | 0.00 | 0.00 | 76 | 1011.7 |
| 20260507051605 | 58 | 221 | 0.0 | 4.3 | 0.00 | 0.00 | 0.00 | 77 | 1011.5 |
| 20260507050104 | 58 | 196 | 0.9 | 4.3 | 0.00 | 0.00 | 0.00 | 77 | 1011.5 |
| 20260507044559 | 58 | 179 | 2.6 | 7.0 | 0.00 | 0.00 | 0.00 | 77 | 1011.3 |
| 20260507043057 | 57 | 181 | 1.7 | 3.5 | 0.00 | 0.00 | 0.00 | 78 | 1011.1 |
| 20260507041558 | 57 | 0 | 0.0 | 0.0 | 0.00 | 0.00 | 0.00 | 79 | 1011.0 |
| 20260507040115 | 57 | 0 | 0.0 | 2.6 | 0.00 | 0.00 | 0.00 | 78 | 1010.9 |
| 20260507034558 | 57 | 208 | 0.9 | 2.6 | 0.00 | 0.00 | 0.00 | 79 | 1010.9 |
| 20260507033100 | 57 | 0 | 0.9 | 2.6 | 0.00 | 0.00 | 0.00 | 79 | 1010.9 |
| 20260507031558 | 58 | 202 | 0.0 | 1.7 | 0.00 | 0.00 | 0.00 | 77 | 1010.9 |
| 20260507030058 | 58 | 196 | 0.9 | 4.3 | 0.00 | 0.00 | 0.00 | 77 | 1011.0 |
| 20260507024604 | 57 | 169 | 0.0 | 1.7 | 0.00 | 0.00 | 0.00 | 78 | 1010.9 |
| 20260507023057 | 58 | 214 | 0.9 | 4.3 | 0.00 | 0.00 | 0.00 | 76 | 1010.8 |
| 20260507021555 | 58 | 193 | 0.9 | 2.6 | 0.00 | 0.00 | 0.00 | 76 | 1010.7 |
| 20260507020058 | 58 | 158 | 0.0 | 3.5 | 0.00 | 0.00 | 0.00 | 77 | 1010.6 |
| 20260507014610 | 58 | 175 | 0.9 | 4.3 | 0.00 | 0.00 | 0.00 | 77 | 1010.8 |
| 20260507013057 | 58 | 264 | 0.9 | 2.6 | 0.00 | 0.00 | 0.00 | 77 | 1010.7 |
| 20260507011604 | 59 | 229 | 0.9 | 3.5 | 0.00 | 0.00 | 0.00 | 76 | 1010.7 |
| 20260507010109 | 59 | 189 | 0.9 | 3.5 | 0.00 | 0.00 | 0.00 | 75 | 1010.6 |
| 20260507004611 | 60 | 200 | 0.9 | 4.3 | 0.00 | 0.00 | 0.00 | 74 | 1010.8 |
| 20260507003102 | 60 | 146 | 1.7 | 5.2 | 0.00 | 0.00 | 0.00 | 73 | 1010.7 |
| 20260507001557 | 60 | 214 | 1.7 | 5.2 | 0.00 | 0.00 | 0.00 | 73 | 1010.7 |
| 20260507000056 | 60 | 192 | 3.5 | 7.0 | 0.00 | 0.00 | 0.00 | 74 | 1010.9 |
| 20260506234559 | 60 | 183 | 0.9 | 4.3 | 0.00 | 0.00 | 0.00 | 74 | 1011.0 |
| 20260506233058 | 60 | 201 | 0.9 | 5.2 | 0.00 | 0.00 | 0.00 | 73 | 1011.0 |
| 20260506231601 | 61 | 195 | 1.7 | 5.2 | 0.00 | 0.00 | 0.00 | 72 | 1010.9 |
| 20260506230059 | 61 | 155 | 2.6 | 7.0 | 0.00 | 0.00 | 0.00 | 71 | 1010.9 |
| 20260506224600 | 61 | 193 | 0.9 | 5.2 | 0.00 | 0.00 | 0.00 | 71 | 1010.8 |
| 20260506223058 | 62 | 0 | 0.9 | 2.6 | 0.00 | 0.00 | 0.00 | 71 | 1010.7 |
| 20260506221559 | 62 | 217 | 0.0 | 5.2 | 0.00 | 0.00 | 0.00 | 70 | 1010.6 |
| 20260506220056 | 62 | 0 | 0.0 | 5.2 | 0.00 | 0.00 | 0.00 | 70 | 1010.4 |
| 20260506214604 | 62 | 233 | 2.6 | 8.7 | 0.00 | 0.00 | 0.00 | 70 | 1010.3 |
| 20260506213059 | 62 | 229 | 1.7 | 5.2 | 0.00 | 0.00 | 0.00 | 69 | 1010.5 |
| 20260506211605 | 62 | 181 | 0.0 | 0.9 | 0.00 | 0.00 | 0.00 | 69 | 1010.2 |
| 20260506210057 | 62 | 0 | 0.0 | 2.6 | 0.00 | 0.00 | 0.00 | 69 | 1010.1 |
| 20260506204556 | 63 | 205 | 1.7 | 5.2 | 0.00 | 0.00 | 0.00 | 68 | 1010.1 |
| 20260506203057 | 63 | 197 | 1.7 | 6.1 | 0.00 | 0.00 | 0.00 | 68 | 1010.0 |
| 20260506201557 | 63 | 192 | 0.9 | 7.0 | 0.00 | 0.00 | 0.00 | 68 | 1009.9 |